When you browse on this site, cookies collect data to enhance your experience and personalize the content and advertising you see.
Visit our Privacy Policy to learn more. By continuing to use the site, you agree to this use of cookies and data.
EN

Hourly Weather Bolshie Milcy

Today, 29 September, Tuesday

Time Temperature Precipitation Wind Pressure Humidity
00:00 +12°C° 0.1 mm 3 mps 757 mmHg 96%
01:00 +12°C° 0.1 mm 3 mps 757 mmHg 96%
02:00 +12°C° 0 mm 2 mps 757 mmHg 96%
03:00 +12°C° 0.1 mm 2 mps 757 mmHg 96%
04:00 +12°C° 0.1 mm 2 mps 757 mmHg 97%
05:00 +12°C° 0.1 mm 2 mps 756 mmHg 97%
06:00 +13°C° 0.3 mm 2 mps 757 mmHg 97%
07:00 +13°C° 0.3 mm 2 mps 757 mmHg 97%
08:00 +13°C° 0.3 mm 2 mps 757 mmHg 97%
09:00 +13°C° 0.5 mm 2 mps 757 mmHg 96%
10:00 +13°C° 0.5 mm 2 mps 757 mmHg 96%
11:00 +13°C° 0.5 mm 2 mps 757 mmHg 96%
12:00 +13°C° 0.2 mm 2 mps 758 mmHg 95%
13:00 +14°C° 0.2 mm 1 mps 758 mmHg 93%
14:00 +14°C° 0.2 mm 1 mps 758 mmHg 92%
15:00 +14°C° 0 mm 1 mps 757 mmHg 92%
16:00 +14°C° 0 mm 1 mps 757 mmHg 92%
17:00 +14°C° 0 mm 1 mps 757 mmHg 92%
18:00 +13°C° 0 mm 1 mps 757 mmHg 93%
19:00 +12°C° 0 mm 1 mps 757 mmHg 94%
20:00 +12°C° 0 mm 1 mps 758 mmHg 95%
21:00 +12°C° 0 mm 1 mps 758 mmHg 95%
22:00 +11°C° 0 mm 1 mps 758 mmHg 96%
23:00 +11°C° 0 mm 1 mps 758 mmHg 96%

Tomorrow, 30 September, Wednesday

Time Temperature Precipitation Wind Pressure Humidity
00:00 +11°C° 0 mm 1 mps 757 mmHg 96%
01:00 +10°C° 0 mm 1 mps 757 mmHg 95%
02:00 +10°C° 0 mm 1 mps 757 mmHg 95%
03:00 +10°C° 0 mm 1 mps 757 mmHg 95%
04:00 +10°C° 0 mm 1 mps 757 mmHg 95%
05:00 +9°C° 0 mm 1 mps 757 mmHg 96%
06:00 +9°C° 0 mm 2 mps 757 mmHg 94%
07:00 +10°C° 0 mm 2 mps 757 mmHg 93%
08:00 +10°C° 0 mm 2 mps 757 mmHg 92%
09:00 +13°C° 0 mm 2 mps 757 mmHg 88%
10:00 +14°C° 0 mm 2 mps 757 mmHg 83%
11:00 +15°C° 0 mm 2 mps 757 mmHg 78%
12:00 +16°C° 0 mm 2 mps 757 mmHg 73%
13:00 +17°C° 0 mm 2 mps 756 mmHg 68%
14:00 +18°C° 0 mm 2 mps 756 mmHg 62%
15:00 +17°C° 0 mm 2 mps 756 mmHg 66%
16:00 +16°C° 0 mm 2 mps 756 mmHg 70%
17:00 +15°C° 0 mm 2 mps 756 mmHg 74%
18:00 +14°C° 0 mm 2 mps 756 mmHg 77%
19:00 +13°C° 0 mm 2 mps 757 mmHg 79%
20:00 +12°C° 0 mm 2 mps 757 mmHg 82%
21:00 +12°C° 0 mm 2 mps 757 mmHg 82%
22:00 +10°C° 0 mm 2 mps 757 mmHg 82%
23:00 +10°C° 0 mm 2 mps 757 mmHg 83%

Day after tomorrow, 1 October, Thursday

Time Temperature Precipitation Wind Pressure Humidity
00:00 +9°C° 0 mm 2 mps 756 mmHg 84%
01:00 +9°C° 0 mm 2 mps 756 mmHg 86%
02:00 +8°C° 0 mm 2 mps 756 mmHg 87%
03:00 +8°C° 0 mm 2 mps 756 mmHg 88%
04:00 +7°C° 0 mm 2 mps 756 mmHg 89%
05:00 +7°C° 0 mm 2 mps 756 mmHg 89%
06:00 +8°C° 0 mm 3 mps 756 mmHg 86%
07:00 +8°C° 0 mm 3 mps 756 mmHg 82%
08:00 +9°C° 0 mm 3 mps 756 mmHg 79%
09:00 +11°C° 0 mm 3 mps 756 mmHg 74%
10:00 +12°C° 0 mm 3 mps 756 mmHg 68%
11:00 +14°C° 0 mm 3 mps 756 mmHg 63%
12:00 +16°C° 0 mm 3 mps 756 mmHg 60%
13:00 +17°C° 0 mm 3 mps 756 mmHg 58%
14:00 +18°C° 0 mm 4 mps 756 mmHg 55%
15:00 +17°C° 0 mm 4 mps 756 mmHg 60%
16:00 +16°C° 0 mm 3 mps 756 mmHg 65%
17:00 +14°C° 0 mm 3 mps 756 mmHg 70%
18:00 +13°C° 0 mm 3 mps 756 mmHg 73%
19:00 +12°C° 0 mm 3 mps 756 mmHg 77%
20:00 +11°C° 0 mm 3 mps 757 mmHg 80%
21:00 +10°C° 0 mm 3 mps 757 mmHg 81%
22:00 +10°C° 0 mm 3 mps 757 mmHg 82%
23:00 +9°C° 0 mm 3 mps 757 mmHg 84%

2 October, Friday

Time Temperature Precipitation Wind Pressure Humidity
00:00 +9°C° 0 mm 3 mps 757 mmHg 85%
01:00 +8°C° 0 mm 3 mps 757 mmHg 86%
02:00 +8°C° 0 mm 3 mps 757 mmHg 88%
03:00 +7°C° 0 mm 3 mps 758 mmHg 87%
04:00 +7°C° 0 mm 3 mps 758 mmHg 86%
05:00 +7°C° 0 mm 3 mps 758 mmHg 86%
06:00 +8°C° 0 mm 3 mps 758 mmHg 82%
07:00 +8°C° 0 mm 3 mps 758 mmHg 78%
08:00 +9°C° 0 mm 3 mps 758 mmHg 75%
09:00 +10°C° 0 mm 3 mps 758 mmHg 71%
10:00 +12°C° 0 mm 3 mps 758 mmHg 66%
11:00 +13°C° 0 mm 3 mps 758 mmHg 62%
12:00 +14°C° 0 mm 3 mps 758 mmHg 63%
13:00 +14°C° 0 mm 3 mps 758 mmHg 64%
14:00 +14°C° 0 mm 3 mps 758 mmHg 65%
15:00 +14°C° 0 mm 3 mps 758 mmHg 67%
16:00 +14°C° 0 mm 3 mps 758 mmHg 69%
17:00 +14°C° 0 mm 3 mps 758 mmHg 72%
18:00 +13°C° 0 mm 3 mps 758 mmHg 75%
19:00 +12°C° 0 mm 3 mps 759 mmHg 78%
20:00 +11°C° 0 mm 3 mps 759 mmHg 81%
21:00 +11°C° 0 mm 3 mps 759 mmHg 81%
22:00 +10°C° 0 mm 3 mps 759 mmHg 82%
23:00 +10°C° 0 mm 3 mps 759 mmHg 83%

3 October, Saturday

Time Temperature Precipitation Wind Pressure Humidity
00:00 +10°C° 0 mm 3 mps 759 mmHg 84%
01:00 +10°C° 0 mm 3 mps 759 mmHg 85%
02:00 +10°C° 0 mm 3 mps 759 mmHg 86%
03:00 +9°C° 0 mm 3 mps 759 mmHg 87%
04:00 +9°C° 0 mm 3 mps 759 mmHg 88%
05:00 +9°C° 0 mm 3 mps 759 mmHg 90%
06:00 +10°C° 0 mm 3 mps 759 mmHg 88%
07:00 +10°C° 0 mm 3 mps 759 mmHg 86%
08:00 +11°C° 0 mm 4 mps 759 mmHg 85%
09:00 +12°C° 0 mm 4 mps 759 mmHg 79%
10:00 +14°C° 0 mm 4 mps 759 mmHg 73%
11:00 +15°C° 0 mm 4 mps 759 mmHg 67%
12:00 +17°C° 0 mm 4 mps 759 mmHg 64%
13:00 +18°C° 0 mm 4 mps 759 mmHg 61%
14:00 +18°C° 0 mm 4 mps 759 mmHg 58%
15:00 +17°C° 0 mm 3 mps 759 mmHg 63%
16:00 +17°C° 0 mm 3 mps 758 mmHg 67%
17:00 +16°C° 0 mm 3 mps 758 mmHg 72%
18:00 +14°C° 0 mm 3 mps 759 mmHg 74%
19:00 +13°C° 0 mm 3 mps 759 mmHg 76%
20:00 +12°C° 0 mm 3 mps 759 mmHg 78%
21:00 +12°C° 0 mm 3 mps 759 mmHg 80%
22:00 +11°C° 0 mm 3 mps 759 mmHg 82%
23:00 +10°C° 0 mm 3 mps 759 mmHg 84%

4 October, Sunday

Time Temperature Precipitation Wind Pressure Humidity
00:00 +10°C° 0 mm 3 mps 759 mmHg 83%
01:00 +10°C° 0 mm 4 mps 759 mmHg 82%
02:00 +10°C° 0 mm 4 mps 758 mmHg 82%
03:00 +10°C° 0 mm 4 mps 758 mmHg 82%
04:00 +10°C° 0 mm 4 mps 758 mmHg 82%
05:00 +8°C° 0 mm 4 mps 758 mmHg 82%
06:00 +10°C° 0 mm 4 mps 758 mmHg 80%
07:00 +9°C° 0 mm 5 mps 758 mmHg 79%
08:00 +10°C° 0 mm 5 mps 758 mmHg 78%
09:00 +12°C° 0 mm 5 mps 758 mmHg 74%
10:00 +13°C° 0 mm 5 mps 758 mmHg 70%
11:00 +14°C° 0 mm 5 mps 758 mmHg 66%
12:00 +15°C° 0 mm 6 mps 757 mmHg 65%
13:00 +16°C° 0 mm 6 mps 757 mmHg 63%
14:00 +16°C° 0 mm 6 mps 757 mmHg 62%
15:00 +16°C° 0 mm 6 mps 756 mmHg 65%
16:00 +15°C° 0 mm 5 mps 756 mmHg 67%
17:00 +15°C° 0 mm 5 mps 756 mmHg 70%
18:00 +14°C° 0.4 mm 5 mps 756 mmHg 73%
19:00 +14°C° 0.4 mm 5 mps 755 mmHg 76%
20:00 +13°C° 0.4 mm 5 mps 755 mmHg 78%
21:00 +13°C° 1.3 mm 6 mps 755 mmHg 82%
22:00 +13°C° 1.3 mm 6 mps 755 mmHg 85%
23:00 +12°C° 1.3 mm 7 mps 754 mmHg 89%
Show more